Home > Weather > Charlestown > Past weeks

Flag for Saint Kitts and Nevis Weather for the Past 2 Weeks in Charlestown, Saint Kitts and Nevis

Now
81 °F

Passing clouds.


Feels Like: 85 °F
Forecast: 79 / 83 °F
Wind: 14 mph from East

Location: Golden Rock

Current Time: May 5, 2016 at 1:14:13 AM

Latest Report: May 5, 2016 at 12:00 AM


Visibility: N/A

Pressure: 30.01 "Hg

Humidity: 79%

Dew Point: 73 °F

Location of CharlestownLocation

Historic Weather in Charlestown — Graph

°F

Charlestown Temperature Yesterday

Maximum temperature yesterday: 86 °F (at 10:00 AM)
Minimum temperature yesterday: 79 °F (at 6:00 AM)
Average temperature yesterday: 83 °F

High & Low Weather Summary for the Past Weeks

 TemperatureHumidityPressure
High90 °F (May 1, 2:00 PM)94% (Apr 20, 6:00 AM)30.07 "Hg (Apr 20, 6:00 AM)
Low75 °F (Apr 20, 8:00 PM)59% (Apr 26, 2:00 PM)29.83 "Hg (Apr 25, 4:00 PM)
Average83 °F76%29.96 "Hg
* Reported Apr 20 6:00 AM — Midnight between May 4 and May 5, Charlestown, Weather by CustomWeather, © 2016

Note: Actual official high and low records may vary slightly from our data, if they occured in-between our weather recording intervals... More about our weather records

Advertising

Charlestown Weather History for the Previous 24 Hours

Scroll right to see more
 ConditionsComfort  
Time TempWeatherWind HumidityBarometerVisibility
12:00 AM
Thu, May 5
81 °FPassing clouds.14 mph79%30.01 "HgN/A
11:00 PM
Wed, May 4
81 °FPassing clouds.12 mph79%30.01 "HgN/A
10:00 PM81 °FPassing clouds.13 mph84%30.01 "HgN/A
9:00 PM81 °FPassing clouds.14 mph79%29.98 "HgN/A
8:00 PM81 °FPassing clouds.12 mph79%29.98 "HgN/A
7:00 PM81 °FPassing clouds.14 mph79%29.98 "HgN/A
6:00 PM81 °FPassing clouds.9 mph79%29.95 "HgN/A
5:00 PM82 °FPassing clouds.10 mph74%29.95 "HgN/A
4:00 PM84 °FPassing clouds.8 mph66%29.95 "HgN/A
3:00 PM86 °FScattered clouds.15 mph66%29.95 "HgN/A
2:00 PM86 °FPassing clouds.12 mph70%29.98 "HgN/A
1:00 PM86 °FPassing clouds.12 mph66%29.98 "HgN/A
12:00 PM86 °FTornado. Passing clouds.13 mph66%30.01 "HgN/A
11:00 AM86 °FScattered clouds.12 mph66%30.04 "HgN/A
10:00 AM86 °FPartly sunny.15 mph66%30.04 "HgN/A
9:00 AM84 °FPassing clouds.13 mph70%30.04 "HgN/A
8:00 AM82 °FPassing clouds.13 mph74%30.01 "HgN/A
7:00 AM81 °FScattered clouds.13 mph79%30.01 "HgN/A
6:00 AM79 °FPassing clouds.10 mph84%29.98 "HgN/A
Weather by CustomWeather, © 2016

See weather overviewHow to use our weather pages